#timestamp,LO_Frequency,Hit 
1501405215.4,286047012.1,N
1501405235.2,286047011.8,N
1501405255.1,286047011.3,N
1501405256.0,286047011.3,N
1501405275.8,286047012.1,N
1501405295.6,286047009.8,N
1501405315.5,286047009.8,N
1501405335.3,286047009.8,N
1501405355.1,286047012.3,N
1501405375.9,286047011.9,N
1501405395.7,286047011.8,N
1501405415.5,286047010.1,N
1501405435.4,286047010.6,N
1501405455.2,286047010.5,N
1501405475.0,286047007.8,N
1501405475.9,286047007.8,N
1501405495.7,286047007.8,N
1501405515.6,286047010.8,N
1501405535.4,286047008.3,N
1501405555.2,286047008.3,N
1501405575.1,286047010.8,N
1501405576.0,286047010.8,N
1501405595.8,286047007.8,N
1501405615.6,286047007.7,N
1501405635.5,286047010.4,N
1501405655.3,286047011.9,N
1501405675.1,286047010.0,N
1501405695.9,286047008.4,N
1501405715.7,286047008.4,N
1501405735.5,286047008.2,N
1501405755.4,286047010.7,N
1501405775.2,286047010.6,N
1501405795.0,286047008.7,N
1501405795.9,286047008.7,N
1501405815.7,286047006.2,N
1501405835.6,286047007.0,N
1501405855.4,286047006.8,N
1501405875.2,286047008.7,N
1501405895.1,286047006.5,N
1501405896.0,286047006.5,N
1501405915.8,286047009.2,N
1501405935.6,286047004.6,N
1501405955.5,286047006.3,N
1501405975.3,286047004.6,N
1501405995.1,286047007.5,N
1501406015.9,286047007.2,N
1501406035.7,286047005.7,N
1501406055.5,286047007.6,N
1501406075.3,286047005.1,N
1501406095.2,286047004.5,N
1501406115.0,286047006.9,N
1501406115.9,286047006.9,N
1501406135.7,286047005.2,N
1501406155.6,286047005.4,N
1501406175.4,286047004.9,N
1501406195.2,286047006.8,N
1501406215.1,286047007.0,N
1501406216.0,286047007.0,N
1501406235.8,286047006.8,N
1501406255.6,286047007.0,N
1501406275.5,286047005.2,N
1501406295.3,286047006.9,N
1501406315.1,286047004.7,N
1501406335.9,286047005.0,N
1501406355.7,286047005.1,N
1501406375.5,286047005.0,N
1501406395.3,286047004.9,N
1501406415.2,286047007.5,N
1501406435.0,286047005.1,N
1501406435.9,286047005.1,N
1501406455.7,286047007.4,N
1501406475.6,286047006.4,N
1501406495.4,286047004.6,N
1501406515.2,286047005.3,N
1501406535.1,286047004.8,N
1501406536.0,286047004.8,N
1501406555.8,286047007.5,N
1501406575.6,286047005.6,N
1501406595.5,286047003.0,N
1501406615.3,286047005.4,N
1501406635.1,286047005.9,N
1501406655.8,286047005.4,N
1501406675.7,286047003.4,N
1501406695.5,286047004.7,N
1501406715.3,286047005.4,N
1501406735.2,286047002.9,N
1501406755.9,286047006.0,N
1501406775.7,286047005.9,N
1501406795.6,286047003.2,N
1501406815.4,286047005.5,N
1501406835.2,286047003.6,N
1501406855.1,286047005.3,N
1501406856.0,286047005.3,N
1501406875.8,286047003.3,N
1501406895.6,286047003.4,N
1501406915.4,286047003.4,N
1501406935.3,286047004.2,N
1501406955.1,286047003.7,N
1501406975.8,286047003.5,N
1501406995.7,286047002.9,N
1501407015.5,286047005.8,N
1501407035.3,286047003.7,N
1501407055.2,286047003.8,N
1501407075.9,286047004.0,N
1501407095.7,286047001.5,N
1501407115.6,286047003.2,N
1501407135.4,286047005.9,N
1501407155.2,286047003.6,N
1501407175.0,286047004.0,N
1501407175.9,286047004.0,N
1501407195.8,286047003.3,N
1501407215.6,286047003.4,N
1501407235.4,286047001.7,N
1501407255.3,286047004.2,N
1501407275.1,286047004.1,N
1501407295.8,286047004.1,N
1501407315.7,286047004.0,N
1501407335.5,286047003.4,N
1501407355.3,286047003.6,N
1501407375.2,286047003.1,N
1501407395.9,286047004.1,N
1501407415.7,286047003.2,N
1501407435.6,286047004.0,N
1501407455.4,286047004.4,N
1501407475.2,286047002.0,N
1501407495.0,286047004.0,N
1501407495.9,286047004.0,N
1501407515.8,286047002.3,N
1501407535.6,286047001.7,N
1501407555.4,286047001.9,N
1501407575.3,286046999.9,N
1501407595.1,286047000.9,N
1501407596.0,286047000.9,N
1501407615.8,286047002.2,N
1501407635.7,286047000.9,N
1501407655.5,286047001.5,N
1501407675.3,286047002.7,N
1501407695.1,286047000.6,N
1501407715.9,286047000.0,N
1501407735.7,286047002.3,N
1501407755.5,286047000.5,N
1501407775.4,286047000.8,N
1501407795.2,286047000.7,N
1501407815.0,286047001.8,N
1501407815.9,286047001.8,N
1501407835.8,286046999.9,N
1501407855.6,286047000.4,N
1501407875.4,286047001.0,N
1501407895.3,286047000.4,N
1501407915.1,286047002.5,N
1501407916.0,286047002.5,N
1501407935.8,286046999.7,N
1501407955.7,286047000.6,N
1501407975.5,286047002.5,N
1501407995.3,286047002.4,N
1501408015.1,286047002.4,N
1501408035.9,286047002.3,N
1501408055.7,286047000.5,N
1501408075.5,286047002.1,N
1501408095.4,286047002.7,N
1501408115.2,286046999.9,N
1501408135.0,286047000.2,N
1501408135.9,286047000.2,N
1501408155.8,286047000.3,N
1501408175.6,286047000.8,N
1501408195.4,286046998.1,N
1501408215.3,286047000.8,N
1501408235.1,286047000.9,N
1501408236.0,286047000.9,N
1501408255.8,286047000.1,N
1501408275.7,286047002.7,N
1501408295.5,286047000.8,N
1501408315.3,286047002.7,N
1501408335.1,286046998.2,N
1501408355.9,286046999.3,N
1501408375.7,286047000.6,N
1501408395.5,286047000.6,N
1501408415.4,286046998.3,N
1501408435.2,286046998.3,N
1501408455.0,286046999.0,N
1501408455.9,286046999.0,N
1501408475.8,286046998.6,N
1501408495.6,286046998.1,N
1501408515.4,286046997.0,N
1501408535.3,286046998.1,N
1501408555.1,286046998.4,N
1501408556.0,286046998.4,N
1501408575.8,286046998.8,N
1501408595.6,286047001.2,N
1501408615.5,286047000.7,N
1501408635.3,286046999.1,N
1501408655.1,286046997.2,N
1501408675.9,286046997.3,N
1501408695.7,286046999.6,N
1501408715.5,286046999.1,N
1501408735.4,286046999.5,N
1501408755.2,286046998.4,N
1501408775.0,286046999.2,N
1501408775.9,286046999.2,N
1501408795.8,286046996.5,N
